When you browse on this site, cookies collect data to enhance your experience and personalize the content and advertising you see.
Visit our Privacy Policy to learn more. By continuing to use the site, you agree to this use of cookies and data.

Hourly Weather Tumen

Today, 9 July, Thursday

Time Temperature Precipitation Wind Pressure Humidity
00:00 +19°C° 0 mm 1 mps 743 mmHg 71%
01:00 +18°C° 0 mm 1 mps 743 mmHg 73%
02:00 +18°C° 0 mm 1 mps 743 mmHg 76%
03:00 +16°C° 0 mm 0 mps 744 mmHg 77%
04:00 +16°C° 0 mm 0 mps 744 mmHg 77%
05:00 +18°C° 0 mm 1 mps 744 mmHg 77%
06:00 +19°C° 0 mm 1 mps 744 mmHg 77%
07:00 +21°C° 0 mm 1 mps 744 mmHg 69%
08:00 +24°C° 0 mm 1 mps 744 mmHg 60%
09:00 +26°C° 0 mm 2 mps 744 mmHg 53%
10:00 +28°C° 0 mm 2 mps 744 mmHg 49%
11:00 +29°C° 0 mm 2 mps 744 mmHg 44%
12:00 +31°C° 0 mm 2 mps 744 mmHg 39%
13:00 +31°C° 0 mm 2 mps 744 mmHg 41%
14:00 +30°C° 0 mm 2 mps 743 mmHg 43%
15:00 +30°C° 0 mm 1 mps 743 mmHg 44%
16:00 +30°C° 0 mm 1 mps 743 mmHg 47%
17:00 +30°C° 0 mm 1 mps 743 mmHg 49%
18:00 +30°C° 0 mm 1 mps 744 mmHg 51%
19:00 +28°C° 0 mm 1 mps 744 mmHg 58%
20:00 +25°C° 0 mm 1 mps 744 mmHg 65%
21:00 +22°C° 0 mm 1 mps 745 mmHg 72%
22:00 +21°C° 0 mm 1 mps 745 mmHg 75%
23:00 +20°C° 0 mm 1 mps 745 mmHg 78%

Tomorrow, 10 July, Friday

Time Temperature Precipitation Wind Pressure Humidity
00:00 +20°C° 0 mm 1 mps 746 mmHg 81%
01:00 +17°C° 0 mm 0 mps 746 mmHg 82%
02:00 +16°C° 0 mm 0 mps 746 mmHg 83%
03:00 +16°C° 0 mm 0 mps 745 mmHg 84%
04:00 +16°C° 0 mm 0 mps 746 mmHg 84%
05:00 +17°C° 0 mm 0 mps 746 mmHg 83%
06:00 +17°C° 0 mm 0 mps 747 mmHg 83%
07:00 +20°C° 0 mm 0 mps 746 mmHg 73%
08:00 +23°C° 0 mm 0 mps 746 mmHg 62%
09:00 +28°C° 0 mm 1 mps 746 mmHg 52%
10:00 +29°C° 0 mm 2 mps 746 mmHg 50%
11:00 +30°C° 0 mm 3 mps 746 mmHg 48%
12:00 +32°C° 0 mm 4 mps 746 mmHg 45%
13:00 +32°C° 0 mm 4 mps 746 mmHg 46%
14:00 +32°C° 0 mm 4 mps 746 mmHg 47%
15:00 +32°C° 0 mm 5 mps 745 mmHg 48%
16:00 +29°C° 0 mm 4 mps 745 mmHg 55%
17:00 +28°C° 0 mm 4 mps 745 mmHg 62%
18:00 +27°C° 0 mm 3 mps 745 mmHg 69%
19:00 +25°C° 0 mm 3 mps 745 mmHg 78%
20:00 +23°C° 0 mm 2 mps 745 mmHg 88%
21:00 +20°C° 0 mm 2 mps 745 mmHg 97%
22:00 +21°C° 0 mm 1 mps 745 mmHg 97%
23:00 +21°C° 0 mm 1 mps 745 mmHg 97%

Day after tomorrow, 11 July, Saturday

Time Temperature Precipitation Wind Pressure Humidity
00:00 +21°C° 0 mm 1 mps 745 mmHg 97%
01:00 +21°C° 0 mm 1 mps 745 mmHg 97%
02:00 +20°C° 0 mm 1 mps 745 mmHg 98%
03:00 +20°C° 0 mm 1 mps 745 mmHg 98%
04:00 +20°C° 0 mm 1 mps 745 mmHg 97%
05:00 +20°C° 0 mm 1 mps 745 mmHg 96%
06:00 +20°C° 0 mm 1 mps 745 mmHg 96%
07:00 +22°C° 0 mm 1 mps 745 mmHg 87%
08:00 +23°C° 0 mm 1 mps 745 mmHg 79%
09:00 +25°C° 0 mm 1 mps 745 mmHg 70%
10:00 +26°C° 0 mm 2 mps 745 mmHg 62%
11:00 +28°C° 0 mm 2 mps 745 mmHg 55%
12:00 +29°C° 0 mm 2 mps 745 mmHg 47%
13:00 +29°C° 0 mm 2 mps 745 mmHg 48%
14:00 +29°C° 0 mm 3 mps 745 mmHg 49%
15:00 +30°C° 0 mm 3 mps 745 mmHg 50%
16:00 +29°C° 0 mm 3 mps 745 mmHg 55%
17:00 +27°C° 0 mm 3 mps 745 mmHg 60%
18:00 +26°C° 0 mm 3 mps 745 mmHg 65%
19:00 +24°C° 0 mm 2 mps 746 mmHg 71%
20:00 +21°C° 0 mm 2 mps 746 mmHg 78%
21:00 +19°C° 0 mm 1 mps 747 mmHg 85%
22:00 +19°C° 0.2 mm 1 mps 747 mmHg 87%
23:00 +19°C° 0.2 mm 1 mps 747 mmHg 89%

12 July, Sunday

Time Temperature Precipitation Wind Pressure Humidity
00:00 +16°C° 0.2 mm 0 mps 747 mmHg 91%
01:00 +18°C° 0 mm 1 mps 747 mmHg 92%
02:00 +18°C° 0 mm 1 mps 747 mmHg 93%
03:00 +16°C° 0 mm 1 mps 747 mmHg 94%
04:00 +18°C° 0 mm 1 mps 747 mmHg 94%
05:00 +18°C° 0 mm 1 mps 747 mmHg 94%
06:00 +18°C° 0 mm 1 mps 747 mmHg 94%
07:00 +20°C° 0 mm 1 mps 747 mmHg 85%
08:00 +23°C° 0 mm 1 mps 747 mmHg 75%
09:00 +25°C° 0 mm 1 mps 747 mmHg 66%
10:00 +27°C° 0 mm 1 mps 747 mmHg 57%
11:00 +29°C° 0 mm 1 mps 747 mmHg 48%
12:00 +31°C° 0 mm 2 mps 747 mmHg 40%
13:00 +31°C° 0 mm 2 mps 746 mmHg 39%
14:00 +31°C° 0 mm 3 mps 746 mmHg 39%
15:00 +31°C° 0 mm 3 mps 745 mmHg 38%
16:00 +30°C° 0 mm 3 mps 745 mmHg 45%
17:00 +29°C° 0 mm 3 mps 745 mmHg 51%
18:00 +28°C° 0 mm 3 mps 745 mmHg 57%
19:00 +25°C° 0 mm 3 mps 746 mmHg 67%
20:00 +23°C° 0 mm 2 mps 746 mmHg 77%
21:00 +20°C° 0 mm 1 mps 746 mmHg 87%
22:00 +19°C° 0 mm 1 mps 746 mmHg 89%
23:00 +18°C° 0 mm 1 mps 746 mmHg 92%

13 July, Monday

Time Temperature Precipitation Wind Pressure Humidity
00:00 +15°C° 0 mm 0 mps 746 mmHg 94%
01:00 +15°C° 0 mm 0 mps 746 mmHg 95%
02:00 +15°C° 0 mm 0 mps 746 mmHg 95%
03:00 +14°C° 0 mm 0 mps 746 mmHg 96%
04:00 +15°C° 0 mm 0 mps 746 mmHg 95%
05:00 +15°C° 0 mm 0 mps 746 mmHg 95%
06:00 +16°C° 0 mm 1 mps 746 mmHg 94%
07:00 +20°C° 0 mm 1 mps 746 mmHg 83%
08:00 +23°C° 0 mm 1 mps 745 mmHg 72%
09:00 +25°C° 0 mm 1 mps 745 mmHg 61%
10:00 +27°C° 0 mm 2 mps 745 mmHg 54%
11:00 +28°C° 0 mm 2 mps 745 mmHg 48%
12:00 +30°C° 0 mm 2 mps 745 mmHg 42%
13:00 +30°C° 0 mm 3 mps 744 mmHg 42%
14:00 +30°C° 0 mm 3 mps 744 mmHg 42%
15:00 +31°C° 0 mm 3 mps 743 mmHg 42%
16:00 +30°C° 0 mm 3 mps 743 mmHg 48%
17:00 +29°C° 0 mm 3 mps 743 mmHg 53%
18:00 +28°C° 0 mm 3 mps 743 mmHg 59%
19:00 +26°C° 0 mm 2 mps 744 mmHg 67%
20:00 +23°C° 0 mm 2 mps 744 mmHg 75%
21:00 +21°C° 0 mm 1 mps 744 mmHg 82%
22:00 +20°C° 0 mm 1 mps 744 mmHg 86%
23:00 +20°C° 0 mm 1 mps 744 mmHg 89%

14 July, Tuesday

Time Temperature Precipitation Wind Pressure Humidity
00:00 +17°C° 0 mm 0 mps 744 mmHg 92%
01:00 +18°C° 0 mm 1 mps 744 mmHg 93%
02:00 +18°C° 0 mm 1 mps 744 mmHg 94%
03:00 +18°C° 0 mm 1 mps 744 mmHg 94%
04:00 +18°C° 0 mm 1 mps 744 mmHg 94%
05:00 +18°C° 0 mm 1 mps 744 mmHg 93%
06:00 +18°C° 0 mm 1 mps 745 mmHg 92%
07:00 +21°C° 0 mm 1 mps 745 mmHg 82%
08:00 +24°C° 0 mm 1 mps 745 mmHg 71%
09:00 +26°C° 0 mm 1 mps 745 mmHg 60%
10:00 +28°C° 0 mm 1 mps 745 mmHg 53%
11:00 +30°C° 0 mm 1 mps 744 mmHg 47%
12:00 +32°C° 0 mm 1 mps 744 mmHg 40%
13:00 +32°C° 0 mm 1 mps 744 mmHg 41%
14:00 +31°C° 0 mm 1 mps 743 mmHg 42%
15:00 +31°C° 0 mm 2 mps 743 mmHg 43%
16:00 +30°C° 0 mm 2 mps 743 mmHg 49%
17:00 +29°C° 0 mm 2 mps 743 mmHg 56%
18:00 +28°C° 0 mm 1 mps 743 mmHg 63%
19:00 +25°C° 0 mm 1 mps 743 mmHg 73%
20:00 +23°C° 0 mm 1 mps 744 mmHg 83%
21:00 +20°C° 0 mm 1 mps 744 mmHg 94%
22:00 +20°C° 0 mm 1 mps 744 mmHg 94%
23:00 +19°C° 0 mm 1 mps 744 mmHg 95%
Show more